Regional Weather Roundup
Issued by NWS

Home | Current Version | Previous Version | Text Only | Print | Product List | Glossary On
Versions: 1 2 3 4 5 6 7 8 9 10 11 12 13 14 15 16 17 18 19 20 21 22 23 24 25 26 27 28 29 30 31 32 33 34 35 36 37 38 39 40 41 42 43 44 45 46 47 48 49 50
000
ASUS43 KMKX 281711
RWRWI

WISCONSIN REGIONAL WEATHER ROUNDUP
NATIONAL WEATHER SERVICE MILWAUKEE/SULLIVAN WI
1200 PM CDT TUE MAR 28 2017

NOTE: "FAIR" INDICATES FEW OR NO CLOUDS BELOW 12,000 FEET WITH NO
SIGNIFICANT WEATHER AND/OR OBSTRUCTIONS TO VISIBILITY.

WIZ001-002-006>008-014>016-023>028-281800-
NORTHWEST WISCONSIN

CITY           SKY/WX    TMP DP  RH WIND       PRES   REMARKS
SUPERIOR ARPT  SUNNY     53  34  47 CALM      30.17S
ASHLAND        SUNNY     54  30  40 NW3       30.17S
HAYWARD        SUNNY     53  21  28 SE7       30.16S
SIREN          SUNNY     55  25  32 CALM      30.16S
CUMBERLAND     SUNNY     50  32  50 CALM      30.16S
RICE LAKE      SUNNY     51  32  48 CALM      30.18R
CHETEK         SUNNY     50  34  53 NE3       30.17R
LADYSMITH      SUNNY     52  33  47 CALM      30.18R
EAU CLAIRE     SUNNY     50  38  63 E3        30.16S
MENOMONIE      SUNNY     51  38  63 E5        30.18R
NEW RICHMOND   SUNNY     54  36  50 CALM      30.16S
OSCEOLA        SUNNY     56  35  46 CALM      30.19S
$$

WIZ003>005-009-010-017-018-281800-
NORTH CENTRAL WISCONSIN

CITY           SKY/WX    TMP DP  RH WIND       PRES   REMARKS
MANITOWISH WTR SUNNY     49  29  44 CALM      30.15F
ARBOR VITAE    SUNNY     52  33  48 CALM      30.15R
WOODRUFF       SUNNY     52  33  48 CALM      30.15R
RHINELANDER    SUNNY     51  32  48 VRB5      30.16R
EAGLE RIVER    SUNNY     49  28  43 CALM      30.16R
LAND O LAKES   SUNNY     51  28  42 CALM      30.17R
PHILLIPS       SUNNY     50  31  48 SW5       30.15R
TOMAHAWK       SUNNY     50  31  48 CALM      30.16S
MEDFORD        SUNNY     46  35  64 NE3       30.15S
MERRILL        SUNNY     49  33  55 SE6       30.17S
$$

WIZ029-030-035-036-043>047-281800-
CENTRAL WISCONSIN

CITY           SKY/WX    TMP DP  RH WIND       PRES   REMARKS
WAUSAU         SUNNY     49  34  56 SW7       30.15R
MOSINEE        MOSUNNY   46  39  76 CALM      30.17R
MARSHFIELD     MOSUNNY   44  38  79 VRB3      30.16R
STEVENS POINT  SUNNY     47  33  57 N3        30.16S
WAUPACA        SUNNY     54  35  49 E3        30.16S
WAUTOMA        SUNNY     51  37  58 N5        30.16S
WISC RAPIDS    SUNNY     51  34  52 VRB7      30.17S
CAMP DOUGLAS   MOSUNNY   52  37  58 E5        30.15S
$$

WIZ011>013-019>022-031-037>040-048>050-281800-
NORTHEAST WISCONSIN

CITY           SKY/WX    TMP DP  RH WIND       PRES   REMARKS
ANTIGO         SUNNY     46  35  65 CALM      30.17R
SHAWANO        SUNNY     50  35  56 NE3       30.17S
OCONTO         SUNNY     39  33  78 E5        30.19R
STURGEON BAY   CLOUDY    35  33  92 NW6       30.17F FOG     WCI  30
GREEN BAY      SUNNY     47  39  74 NE7       30.17R
MANITOWOC      PTSUNNY   40  36  86 NE8       30.17R WCI  34
APPLETON       MOSUNNY   46  36  66 N8        30.14R
CLINTONVILLE   SUNNY     50  32  50 NE6       30.16F
OSHKOSH        SUNNY     46  38  73 NE9       30.16R
$$

WIZ032>034-041-042-053>061-281800-
SOUTHWEST WISCONSIN

CITY           SKY/WX    TMP DP  RH WIND       PRES   REMARKS
LA CROSSE      SUNNY     50  39  66 W7        30.16F
SPARTA         SUNNY     51  37  58 SE8       30.16F
VIROQUA        MOSUNNY   50  37  61 CALM      30.15S
BOSCOBEL       CLOUDY    48  37  65 E6        30.17R
PRAIRIE DU CHI CLOUDY    48  39  69 NE7       30.16S
PLATTEVILLE    CLOUDY    46  42  88 NE10      30.15S
$$

WIZ056-057-062-063-064-067-068-281800-
SOUTH CENTRAL WISCONSIN

CITY           SKY/WX    TMP DP  RH WIND       PRES   REMARKS
REEDSBURG      CLOUDY    48  38  67 CALM      30.16R
BARABOO/DELLS  PTSUNNY   47  36  66 N3        30.16R
LONE ROCK      CLOUDY    48  37  65 SE6       30.17R
MINERAL POINT  CLOUDY    45  41  87 NE5       30.16R
MADISON        PTSUNNY   48  36  63 E3        30.15R
MIDDLETON      PTSUNNY   49  39  69 N8        30.16S
WATERTOWN      MOSUNNY   49  37  64 NE3       30.14R
MONROE         CLOUDY    43  37  81 N9        30.14S
JANESVILLE     CLOUDY    48  37  66 E12       30.14R
$$

WIZ051-052-058>065-066-070>072-281800-
SOUTHEAST WISCONSIN

CITY           SKY/WX    TMP DP  RH WIND       PRES   REMARKS
MILWAUKEE      CLOUDY    40  35  83 NE14G20   30.15S WCI  32
WAUKESHA       MOSUNNY   45  36  70 NE12      30.14R
MILWAUKEE/TIMM SUNNY     45  36  70 E7        30.15R
RACINE         CLOUDY    40  35  83 N14       30.16R WCI  32
KENOSHA        CLOUDY    45  38  76 NE12      30.14R
FOND DU LAC    SUNNY     47  35  63 N10       30.16R
SHEBOYGAN      MOSUNNY   44  38  79 NE7       30.15R
WEST BEND      SUNNY     50  36  57 NE7       30.14R
JUNEAU         SUNNY     48  37  65 N5        30.15S
$$

LSZ147-162-281800-
LAKE SUPERIOR

STATION/POSITION TIME  TEMP    WIND        PRES    WAVE
                       AIR SEA DIR/SP/G            HT/PER
                 (UTC) (F)     (DEG/KT/KT) (MB)    (FT/S)
DEVILS ISLAND    1700   37     220/ 10/ 11 1022.5R
PORT WING        1640   37     340/  3/  6 1022.0R
SAXON HARBOR     1640   42      40/  3/  3 1021.7S
$$

LMZ867-665-643>646-281800-
LAKE MICHIGAN

STATION/POSITION TIME  TEMP    WIND        PRES    WAVE
                       AIR SEA DIR/SP/G            HT/PER
                 (UTC) (F)     (DEG/KT/KT) (MB)    (FT/S)
CHAMBERS ISLAND  1640   33     340/  6/  8 1022.0R
NORTHPORT PIER   1640   33     320/  3/  5 1022.0R
SISTER BAY       1451   35     110/  6/  9   N/A
KEWAUNEE LAKESHO 1648   34      40/  9/ 11 1021.7R
SHEBOYGAN LAKESH 1700   34      20/ 10/ 12 1021.8R
PORT WASHINGTON  1630   39      50/  9/ 13 1022.0R
MILWAUKEE LAKESH 1520   38      30/ 12/ 15   N/A
KENOSHA   LAKESH 1700   37      30/ 16/ 18 1020.7
$$

TC  - TEMPERATURE IN CELSIUS
VSB - VISIBILITY IN STATUTE MILES
WCI - WIND CHILL INDEX
HX  - HEAT INDEX





USA.gov is the U.S. government's official web portal to all federal, state and local government web resources and services.